MDT,Max TemperatureF,Mean TemperatureF,Min TemperatureF,Max Dew PointF,MeanDew PointF,Min DewpointF,Max Humidity, Mean Humidity, Min Humidity, Max Sea Level PressureIn, Mean Sea Level PressureIn, Min Sea Level PressureIn, Max VisibilityMiles, Mean VisibilityMiles, Min VisibilityMiles, Max Wind SpeedMPH, Mean Wind SpeedMPH, Max Gust SpeedMPH,PrecipitationIn, CloudCover, Events, WindDirDegrees
2013-4-1,49,38,28,28,25,18,90,62,37,30.18,30.11,30.04,10,10,10,20,10,24,0.00,3,Thunderstorm,160
2013-4-2,32,30,28,31,29,27,99,94,85,30.12,30.09,30.05,10,4,0,10,5,,0.00,8,Fog-Snow,201
2013-4-3,56,42,29,36,28,11,100,76,18,30.20,30.13,30.10,10,6,0,17,6,28,0.00,5,Fog-Snow,241
2013-4-4,65,48,32,28,20,15,81,36,15,30.22,30.17,30.11,10,10,10,14,8,24,0.00,0,,266
2013-4-5,69,52,36,28,19,11,60,30,12,30.12,29.95,29.81,10,10,10,28,8,37,0.00,1,,288
2013-4-6,61,48,34,32,22,16,73,38,18,30.01,29.96,29.91,10,10,10,21,10,30,0.00,2,Rain,166
2013-4-7,64,48,32,32,22,10,91,43,12,29.95,29.84,29.77,10,10,10,29,8,39,0.00,1,,299
2013-4-8,67,46,25,33,21,12,91,44,14,29.80,29.64,29.46,10,10,5,40,12,53,0.00,2,,138
2013-4-9,24,16,6,21,6,0,84,74,65,29.99,29.81,29.62,10,7,0,43,33,61,0.00,6,Snow,353
2013-4-10,28,16,3,13,7,-2,81,67,49,30.00,29.93,29.87,10,10,7,21,11,28,0.00,2,Snow,341
2013-4-11,53,34,14,32,22,9,87,59,29,29.94,29.81,29.71,10,10,10,22,9,31,0.00,4,,326
2013-4-12,56,42,28,32,29,20,100,72,29,30.03,29.95,29.91,10,9,0,21,7,28,0.00,3,Fog-Snow,192
2013-4-13,67,48,29,34,23,10,100,58,12,30.03,29.71,29.46,10,6,0,20,9,34,0.00,4,Fog-Snow,229
2013-4-14,53,42,33,34,16,3,94,41,14,29.80,29.63,29.47,10,10,3,30,16,43,0.00,3,Rain-Snow,306
2013-4-15,54,40,26,24,14,4,82,48,17,29.98,29.78,29.71,10,10,10,31,14,40,0.00,6,,141
2013-4-16,42,32,23,27,24,21,99,84,51,29.98,29.90,29.80,10,8,2,24,13,32,0.00,7,Snow,144
2013-4-17,30,23,16,28,22,11,99,91,79,30.01,29.88,29.81,10,4,0,29,10,39,0.00,8,Snow,37
2013-4-18,34,22,12,16,12,7,84,68,39,30.14,30.03,29.99,10,9,3,18,13,24,0.00,3,Snow,347
2013-4-19,52,33,16,19,10,5,71,38,18,30.12,30.06,29.99,10,10,10,14,8,22,0.00,1,,235
2013-4-20,54,39,24,34,21,14,92,48,24,30.08,29.97,29.92,10,10,10,16,6,29,0.00,4,,309
2013-4-21,59,44,30,31,21,14,92,41,17,30.12,30.07,30.03,10,10,10,26,9,36,0.00,2,,267
2013-4-22,58,38,19,34,24,15,91,68,26,30.18,30.03,29.94,10,9,0,30,11,43,0.00,4,Rain-Snow,347
2013-4-23,27,21,16,22,17,13,97,85,67,30.18,30.13,30.08,10,5,1,13,9,17,0.00,7,Snow,45
2013-4-24,49,34,19,22,17,13,93,55,24,30.27,30.18,30.13,10,10,5,10,6,22,0.00,1,,237
2013-4-25,65,44,25,33,21,15,70,42,15,30.24,30.08,29.96,10,10,5,23,6,33,0.00,1,Rain,210
2013-4-26,62,53,44,27,17,8,52,28,12,30.23,30.14,30.05,10,10,7,18,13,30,0.00,2,,351
2013-4-27,,,,,,,,,,,,,,,,,,,,,,
2013-4-28,,,,,,,,,,,,,,,,,,,,,,
2013-4-29,,,,,,,,,,,,,,,,,,,,,,
2013-4-30,69,64,59,31,29,26,35,27,19,29.85,29.82,29.80,10,10,10,22,17,33,0.00,1,,117